Voltar ao catálogo

HAWK-5C

AtivoCiênciaPO
NORAD 52754·PAYLOAD·🇺🇸 United States

Lançado May 25, 2022 de Cape Canaveral Space Force Station

Loading…

Próximas Passagens (próximas 24 horas)

TLE

AtualizadoSource: Space-Track

Época: Sep 14, 2026, 22:30 UTC

1 52754U 22057Y   26257.93801385  .00019090  00000-0  29360-3 0  9990
2 52754  97.6681  63.6492 0004826 101.1640 259.0156 15.54274412240273

Acompanhe HAWK-5C em tempo real com AllMySat

Download on the App Store